Regional Weather Roundup
Issued by NWS

Home | Current Version | Previous Version | Graphics & Text | Print | Product List | Glossary On
Versions: 1 2 3 4 5 6 7 8 9 10 11 12 13 14 15 16 17 18 19 20 21 22 23 24 25 26 27 28 29 30 31 32 33 34 35 36 37 38 39 40 41 42 43 44 45 46 47 48 49 50
011
ASUS43 KBIS 221301
RWRND

NORTH DAKOTA REGIONAL WEATHER ROUNDUP
NATIONAL WEATHER SERVICE BISMARCK ND
800 AM CDT FRI MAY 22 2015

NOTE: "FAIR" INDICATES FEW OR NO CLOUDS BELOW 12,000 FEET WITH NO
SIGNIFICANT WEATHER AND/OR OBSTRUCTIONS TO VISIBILITY.


NDZ001>003-009>011-017-221400-
NORTHWEST NORTH DAKOTA

CITY           SKY/WX    TMP DP  RH WIND       PRES   REMARKS
WILLISTON      SUNNY     51  39  63 NE3       30.13S
MINOT          SUNNY     56  38  50 S5        30.14S
MINOT AFB      SUNNY     55  47  76 S2        30.13S
$$

NDZ018>021-031>035-040>046-221400-
SOUTHWEST NORTH DAKOTA

CITY           SKY/WX    TMP DP  RH WIND       PRES   REMARKS
BISMARCK       SUNNY     50  43  77 CALM      30.17R
DICKINSON      SUNNY     50  37  61 SE6       30.12S
GARRISON         N/A     52  42  69 CALM      30.15R
HETTINGER ARPT MOSUNNY   48  38  68 SE3       30.14S
$$

NDZ004>008-012>016-024-026-027-054-221400-
NORTHEAST NORTH DAKOTA

CITY           SKY/WX    TMP DP  RH WIND       PRES   REMARKS
GRAND FORKS    SUNNY     52  42  69 SW5       30.18R
GRND FRKS AFB  SUNNY     54  41  62 SW6       30.18R
DEVILS LAKE    SUNNY     55  43  62 SW7       30.17S
$$

NDZ022-023-025-028>030-036>039-047>053-221400-
SOUTHEAST NORTH DAKOTA

CITY           SKY/WX    TMP DP  RH WIND       PRES   REMARKS
FARGO          SUNNY     53  44  71 CALM      30.19S
JAMESTOWN      SUNNY     53  44  71 SE5       30.18S
$$




USA.gov is the U.S. government's official web portal to all federal, state and local government web resources and services.